Tracking 30143 objects as of 20-Jan-2025
HD Live streaming from Space Station
objects crossing your sky now

SIRIUS-SINP-3U

Track SIRIUS-SINP-3U now!
10-day predictions
SIRIUS-SINP-3U is classified as:


NORAD ID: 57170
Int'l Code: 2023-091E
Perigee: 522.5 km
Apogee: 539.9 km
Inclination: 97.6 °
Period: 95.1 minutes
Semi major axis: 6902 km
RCS: Unknown
Launch date: June 27, 2023
Source: (TBD)
Launch site: VOSTOCHNY COSMODROME (VOSTO)

Uplink (MHz):
Downlink (MHz): 436.550
Beacon (MHz):
Mode: 1k2AFSK/4k8GMSK
Call sign:
Status: Inactive


Uplink (MHz):
Downlink (MHz): 436.260
Beacon (MHz):
Mode: LoRa
Call sign: RS52SG
Status: Unknown

Your satellite tracking list
Your tracking list is empty




NASA's NSSDC Master Catalog

Two Line Element Set (TLE):
1 57170U 23091E   25020.50871911  .00014296  00000-0  78905-3 0  9990
2 57170  97.5854  77.5086 0012648  78.4079 281.8571 15.13986017 86321
Source of the keplerian elements: AFSPC